This is the latest recevied weather packets stored in our database for station/object KD9ZDW. If no packets are shown the sender has not sent any weather packets the latest 10 day(s).
| Time | Temp. | Humidity | Pressure | Rain* | Wind** | Luminosity | Snow |
|---|---|---|---|---|---|---|---|
| 1777508679 | 10.56° C | 75% | 1014.4 hPa | 0 mm | - | 5 W/m² | - |
| 1777508377 | 10.56° C | 74% | 1014.7 hPa | 0 mm | - | 7 W/m² | - |
| 1777508073 | 10.56° C | 74% | 1014.7 hPa | 0 mm | - | 9 W/m² | - |
| 1777507770 | 11.11° C | 73% | 1014.6 hPa | 0 mm | - | 13 W/m² | - |
| 1777507467 | 11.11° C | 72% | 1014.7 hPa | 0 mm | - | 16 W/m² | - |
| 1777507164 | 11.11° C | 72% | 1014.5 hPa | 0 mm | - | 19 W/m² | - |
| 1777506862 | 11.11° C | 72% | 1014.4 hPa | 0 mm | - | 25 W/m² | - |
| 1777506559 | 11.11° C | 72% | 1014.3 hPa | 0 mm | - | 30 W/m² | - |
| 1777506254 | 11.67° C | 72% | 1014.3 hPa | 0 mm | - | 32 W/m² | - |
| 1777505951 | 11.67° C | 71% | 1014 hPa | 0 mm | - | 32 W/m² | - |
| 1777505647 | 11.67° C | 71% | 1014.3 hPa | 0 mm | - | 40 W/m² | - |
| 1777505344 | 11.67° C | 70% | 1014.2 hPa | 0 mm | - | 41 W/m² | - |
| 1777505040 | 11.67° C | 70% | 1014 hPa | 0 mm | - | 45 W/m² | - |
| 1777504737 | 12.22° C | 68% | 1013.7 hPa | 0 mm | - | 53 W/m² | - |
| 1777504435 | 12.22° C | 69% | 1014.1 hPa | 0 mm | - | 62 W/m² | - |
| 1777504129 | 12.22° C | 67% | 1014.2 hPa | 0 mm | - | 61 W/m² | - |
| 1777503825 | 12.22° C | 66% | 1014.2 hPa | 0 mm | - | 63 W/m² | - |
| 1777503522 | 12.22° C | 66% | 1014.4 hPa | 0 mm | - | 66 W/m² | - |
| 1777503218 | 12.22° C | 64% | 1014.3 hPa | 0 mm | - | 66 W/m² | - |
| 1777502916 | 12.78° C | 64% | 1014.1 hPa | 0 mm | - | 97 W/m² | - |
| 1777502613 | 12.78° C | 65% | 1014 hPa | 0 mm | - | 85 W/m² | - |
| 1777502310 | 12.78° C | 65% | 1013.9 hPa | 0 mm | - | 96 W/m² | - |
| 1777502006 | 13.33° C | 65% | 1013.7 hPa | 0 mm | - | 89 W/m² | - |
| 1777501703 | 13.33° C | 64% | 1013.6 hPa | 0 mm | - | 104 W/m² | - |
| 1777501401 | 13.33° C | 65% | 1013.5 hPa | 0 mm | - | 113 W/m² | - |
* Rain latest hour (hover to see other rain measurements)
** Current wind speed in m/s (hover to see current wind gust speed)